"startDT [UTC]","vpos","CH4 [ppm]","stdev(CH4) [ppm]","CO2 [ppm]","stdev(CO2) [ppm]","H2O_reported [%]","stdev(H2O_reported)","CavityPressure [torr]","CavityTemp [C]","OutletValve","CH4_dry [ppm]","CO2_dry [ppm]","DasTemp [C]","EtalonTemp [C]","WarmBoxTemp [C]","MPVPosition","T_ECpre [C]","T_EC1 [C]","T_EC2 [C]","p_inlet [hPa]","p_in [hPa]","p_out [hPa]","T_inlet [C]","RH_inlet [%]","dwpt_inlet [C]","T_vent [C]","RH_vent [%]","dwpt_vent [C]","flow_vent [l min-1]","flow_inlet [l min-1]","dwpt_sample [C]","T_room [C]"
2015-10-21 00:00:00,0.0,1.92677,0.00051,395.580,0.201,0.4815,0.0017,140.003,45.000,31508.56113,1.93600,397.911,34.313,45.069,45.000,0.00,0.09,-272.75,-272.80,-6,518,-925,20.4,15.0,-7.1,20.6,15.2,-6.8,5.73,1.99,-6.7,26.1
2015-10-21 00:01:00,0.0,1.92666,0.00045,395.216,0.151,0.4838,0.0023,139.998,45.000,31506.47238,1.93604,397.549,34.308,45.069,45.000,0.00,0.09,-272.74,-272.81,-7,518,-925,20.4,15.1,-7.0,20.5,15.2,-6.8,5.73,1.79,-6.7,26.1
2015-10-21 00:02:00,0.0,1.92699,0.00051,395.331,0.061,0.4836,0.0023,139.999,45.000,31505.34264,1.93625,397.666,34.311,45.069,45.000,0.00,0.09,-272.75,-272.80,-6,518,-924,20.4,15.1,-7.0,20.5,15.3,-6.8,5.73,2.06,-6.7,26.1
2015-10-21 00:03:00,0.0,1.92783,0.00098,395.226,0.200,0.4865,0.0019,139.998,45.000,31507.12861,1.93711,397.564,34.290,45.069,45.000,0.00,0.09,-272.74,-272.80,-7,518,-925,20.4,15.2,-6.9,20.5,15.3,-6.7,5.73,1.73,-6.7,26.1
2015-10-21 00:04:00,0.0,1.92724,0.00056,394.976,0.144,0.4894,0.0020,140.000,45.000,31508.64805,1.93673,397.347,34.298,45.069,45.000,0.00,0.09,-272.75,-272.81,-5,518,-924,20.4,15.3,-6.9,20.5,15.5,-6.6,5.73,2.10,-6.7,26.1
2015-10-21 00:05:00,0.0,1.92743,0.00041,394.945,0.069,0.4885,0.0023,140.000,45.000,31506.38578,1.93684,397.297,34.290,45.069,45.000,0.00,0.09,-272.75,-272.81,-7,518,-924,20.4,15.3,-6.9,20.5,15.4,-6.6,5.73,1.72,-6.7,26.1
2015-10-21 00:06:00,0.0,1.92765,0.00049,395.097,0.076,0.4905,0.0017,140.001,45.000,31506.98264,1.93707,397.459,34.302,45.069,45.000,0.00,0.09,-272.75,-272.81,-6,518,-925,20.4,15.3,-6.8,20.5,15.5,-6.6,5.73,2.09,-6.7,26.1
2015-10-21 00:07:00,0.0,1.92832,0.00032,395.250,0.048,0.4939,0.0020,139.997,45.000,31505.89540,1.93783,397.630,34.309,45.069,45.000,0.00,0.09,-272.75,-272.81,-7,518,-924,20.4,15.4,-6.7,20.5,15.6,-6.5,5.73,1.77,-6.7,26.1
2015-10-21 00:08:00,0.0,1.92932,0.00047,395.516,0.092,0.4975,0.0024,139.998,45.000,31505.37736,1.93885,397.914,34.313,45.069,45.000,0.00,0.09,-272.75,-272.81,-6,518,-924,20.4,15.6,-6.6,20.5,15.7,-6.4,5.73,2.01,-6.8,26.1
2015-10-21 00:09:00,0.0,1.92995,0.00034,395.598,0.047,0.5023,0.0013,140.000,45.000,31506.32055,1.93963,398.022,34.314,45.069,45.000,0.00,0.09,-272.75,-272.80,-7,518,-924,20.4,15.7,-6.5,20.5,15.8,-6.3,5.73,1.87,-6.7,26.1
2015-10-21 00:10:00,0.0,1.93033,0.00048,395.817,0.096,0.5049,0.0021,140.001,45.000,31504.97481,1.94003,398.253,34.313,45.069,45.000,0.00,0.09,-272.74,-272.80,-6,518,-924,20.4,15.8,-6.4,20.5,15.9,-6.2,5.73,1.90,-6.7,26.1
2015-10-21 00:11:00,0.0,1.93073,0.00035,395.857,0.027,0.5054,0.0019,140.000,45.000,31506.55401,1.94050,398.300,34.318,45.069,45.000,0.00,0.09,-272.76,-272.80,-7,518,-924,20.5,15.8,-6.4,20.6,16.0,-6.2,5.73,1.98,-6.7,26.1
2015-10-21 00:12:00,0.0,1.93095,0.00040,395.875,0.044,0.5050,0.0015,140.000,45.000,31508.13622,1.94068,398.315,34.340,45.069,45.000,0.00,0.09,-272.75,-272.81,-6,518,-924,20.5,15.8,-6.4,20.6,16.0,-6.1,5.73,1.78,-6.7,26.1
2015-10-21 00:13:00,0.0,1.93147,0.00037,395.990,0.058,0.5052,0.0019,140.000,45.000,31507.76618,1.94119,398.430,34.318,45.069,45.000,0.00,0.09,-272.75,-272.80,-7,518,-925,20.5,15.8,-6.4,20.6,16.0,-6.1,5.73,2.07,-6.7,26.1
2015-10-21 00:14:00,0.0,1.93195,0.00043,396.205,0.093,0.5073,0.0016,139.998,45.000,31510.10101,1.94172,398.654,34.320,45.069,45.000,0.00,0.09,-272.74,-272.81,-6,519,-924,20.5,15.8,-6.3,20.6,16.0,-6.1,5.73,1.73,-6.7,26.1
2015-10-21 00:15:00,0.0,1.93267,0.00046,396.362,0.034,0.5079,0.0018,140.001,45.000,31508.99078,1.94248,398.820,34.338,45.069,45.000,0.00,0.09,-272.75,-272.81,-7,518,-924,20.5,15.8,-6.3,20.6,16.0,-6.1,5.73,2.10,-6.7,26.1
2015-10-21 00:16:00,0.0,1.93343,0.00043,396.383,0.039,0.5081,0.0020,140.000,45.000,31509.64035,1.94320,398.841,34.362,45.069,45.000,0.00,0.09,-272.74,-272.80,-6,519,-924,20.6,15.8,-6.3,20.7,16.0,-6.0,5.73,1.76,-6.7,26.1
2015-10-21 00:17:00,0.0,1.93371,0.00026,396.444,0.045,0.5080,0.0016,140.000,45.000,31511.78342,1.94351,398.902,34.375,45.069,45.000,0.00,0.09,-272.74,-272.81,-7,519,-924,20.6,15.8,-6.3,20.7,16.0,-6.0,5.73,2.00,-6.7,26.1
2015-10-21 00:18:00,0.0,1.93450,0.00039,396.531,0.039,0.5077,0.0017,140.002,45.000,31512.36842,1.94428,398.988,34.377,45.069,45.000,0.00,0.09,-272.75,-272.81,-6,519,-925,20.6,15.8,-6.3,20.7,16.0,-6.1,5.73,1.89,-6.7,26.2
2015-10-21 00:19:00,0.0,1.93463,0.00043,396.543,0.037,0.5082,0.0020,140.001,45.000,31512.43550,1.94447,399.005,34.390,45.069,45.000,0.00,0.09,-272.74,-272.81,-7,519,-924,20.6,15.8,-6.3,20.7,16.0,-6.1,5.73,1.86,-6.7,26.2
2015-10-21 00:20:00,0.0,1.93343,0.00039,396.475,0.043,0.5074,0.0016,139.998,45.000,31514.00086,1.94328,398.933,34.430,45.069,45.000,0.00,0.09,-272.75,-272.80,-6,519,-925,20.6,15.7,-6.3,20.7,16.0,-6.1,5.73,2.01,-6.7,26.2
2015-10-21 00:21:00,0.0,1.93287,0.00027,396.466,0.037,0.5067,0.0018,140.001,45.000,31516.02021,1.94265,398.917,34.427,45.069,45.000,0.00,0.09,-272.75,-272.82,-7,519,-924,20.6,15.7,-6.3,20.7,15.9,-6.1,5.73,1.76,-6.7,26.2
2015-10-21 00:22:00,0.0,1.93283,0.00026,396.455,0.040,0.5056,0.0015,139.999,45.000,31515.10127,1.94262,398.907,34.400,45.069,45.000,0.00,0.09,-272.76,-272.81,-6,519,-925,20.6,15.7,-6.4,20.7,15.9,-6.1,5.73,2.08,-6.7,26.2
2015-10-21 00:23:00,0.0,1.93020,0.00114,395.637,0.312,0.5037,0.0022,139.999,45.000,31514.10658,1.94004,398.091,34.378,45.069,45.000,0.00,0.09,-272.74,-272.80,-7,519,-924,20.6,15.6,-6.4,20.7,15.9,-6.2,5.73,1.72,-6.7,26.2
2015-10-21 00:24:00,0.0,1.92852,0.00032,395.118,0.036,0.4981,0.0023,139.999,45.000,31513.03638,1.93812,397.521,34.375,45.069,45.000,0.00,0.09,-272.75,-272.80,-6,519,-924,20.6,15.5,-6.6,20.7,15.7,-6.3,5.73,2.10,-6.7,26.2
2015-10-21 00:25:00,0.0,1.92846,0.00050,395.271,0.113,0.4963,0.0022,139.998,45.000,31511.64368,1.93803,397.659,34.370,45.069,45.000,0.00,0.09,-272.75,-272.81,-7,519,-924,20.5,15.4,-6.7,20.7,15.6,-6.4,5.73,1.74,-6.7,26.2
2015-10-21 00:26:00,0.0,1.92856,0.00033,395.641,0.120,0.4959,0.0019,140.000,45.000,31509.22682,1.93809,398.034,34.369,45.069,45.000,0.00,0.09,-272.75,-272.80,-6,519,-924,20.6,15.4,-6.7,20.7,15.6,-6.4,5.73,2.05,-6.7,26.1
2015-10-21 00:27:00,0.0,1.92860,0.00046,395.569,0.087,0.4950,0.0019,139.997,45.000,31509.00935,1.93817,397.960,34.371,45.069,45.000,0.00,0.09,-272.75,-272.80,-7,519,-925,20.6,15.3,-6.7,20.7,15.5,-6.4,5.73,1.80,-6.7,26.2
2015-10-21 00:28:00,0.0,1.92890,0.00058,395.554,0.068,0.4954,0.0018,139.998,45.000,31507.81594,1.93838,397.944,34.329,45.069,45.000,0.00,0.09,-272.75,-272.82,-6,519,-924,20.6,15.4,-6.6,20.7,15.6,-6.4,5.73,1.96,-6.7,26.2
2015-10-21 00:29:00,0.0,1.93000,0.00047,395.597,0.049,0.4970,0.0016,140.001,45.000,31508.86424,1.93954,397.994,34.313,45.069,45.000,0.00,0.09,-272.75,-272.81,-7,519,-924,20.5,15.4,-6.6,20.7,15.6,-6.4,5.73,1.90,-6.7,26.2
2015-10-21 00:30:00,0.0,1.93162,0.00043,395.793,0.042,0.4993,0.0018,139.999,45.000,31507.60799,1.94122,398.204,34.311,45.069,45.000,0.00,0.09,-272.74,-272.81,-6,519,-924,20.5,15.5,-6.6,20.7,15.7,-6.3,5.73,1.86,-6.7,26.1
2015-10-21 00:31:00,0.0,1.93166,0.00046,395.793,0.044,0.5006,0.0019,139.999,45.000,31507.41949,1.94132,398.212,34.314,45.069,45.000,0.00,0.09,-272.75,-272.81,-7,519,-924,20.5,15.6,-6.5,20.7,15.7,-6.3,5.73,2.00,-6.7,26.1
2015-10-21 00:32:00,0.0,1.93208,0.00036,395.783,0.071,0.5020,0.0015,139.999,45.000,31508.84651,1.94177,398.210,34.321,45.069,45.000,0.00,0.09,-272.75,-272.82,-7,519,-924,20.5,15.6,-6.5,20.7,15.8,-6.3,5.73,1.77,-6.7,26.2
2015-10-21 00:33:00,0.0,1.93246,0.00075,395.832,0.089,0.5015,0.0015,140.001,45.000,31509.69214,1.94211,398.254,34.333,45.069,45.000,0.00,0.09,-272.75,-272.80,-7,519,-924,20.5,15.6,-6.5,20.7,15.8,-6.3,5.73,2.08,-6.6,26.2
2015-10-21 00:34:00,0.0,1.93266,0.00034,395.801,0.033,0.5030,0.0018,140.001,45.000,31508.05775,1.94237,398.231,34.331,45.069,45.000,0.00,0.09,-272.75,-272.81,-7,519,-924,20.5,15.6,-6.5,20.6,15.8,-6.2,5.73,1.72,-6.7,26.1
2015-10-21 00:35:00,0.0,1.93319,0.00039,395.793,0.063,0.5033,0.0013,140.000,45.000,31505.19121,1.94287,398.225,34.338,45.069,45.000,0.00,0.09,-272.76,-272.81,-6,519,-924,20.5,15.6,-6.5,20.6,15.8,-6.2,5.73,2.10,-6.6,26.1
2015-10-21 00:36:00,0.0,1.93380,0.00059,395.885,0.072,0.5041,0.0021,140.001,45.000,31507.31761,1.94353,398.320,34.350,45.069,45.000,0.00,0.09,-272.74,-272.81,-7,519,-924,20.5,15.6,-6.5,20.6,15.8,-6.2,5.73,1.73,-6.7,26.1
2015-10-21 00:37:00,0.0,1.93500,0.00086,396.029,0.132,0.5042,0.0015,139.998,45.000,31507.25397,1.94470,398.464,34.349,45.069,45.000,0.00,0.09,-272.75,-272.80,-6,519,-924,20.5,15.7,-6.4,20.6,15.8,-6.2,5.73,2.07,-6.7,26.2
2015-10-21 00:38:00,0.0,1.93611,0.00071,396.283,0.121,0.5047,0.0019,139.999,45.000,31507.74172,1.94588,398.723,34.335,45.069,45.000,0.00,0.09,-272.75,-272.81,-7,519,-924,20.5,15.7,-6.4,20.6,15.9,-6.2,5.73,1.78,-6.6,26.1
2015-10-21 00:39:00,0.0,1.93615,0.00056,396.180,0.074,0.5053,0.0023,139.998,45.000,31506.14136,1.94587,398.625,34.350,45.069,45.000,0.00,0.09,-272.75,-272.81,-6,519,-924,20.5,15.7,-6.4,20.6,15.9,-6.2,5.73,2.00,-6.6,26.1
2015-10-21 00:40:00,0.0,1.93752,0.00075,396.424,0.126,0.5056,0.0015,139.999,45.000,31505.19422,1.94725,398.864,34.338,45.069,45.000,0.00,0.09,-272.75,-272.80,-7,519,-924,20.5,15.7,-6.4,20.6,15.9,-6.1,5.73,1.86,-6.6,26.1
2015-10-21 00:41:00,0.0,1.93912,0.00047,396.765,0.042,0.5064,0.0016,140.002,45.000,31506.64530,1.94889,399.215,34.315,45.069,45.000,0.00,0.09,-272.75,-272.81,-6,519,-924,20.6,15.8,-6.3,20.7,15.9,-6.1,5.73,1.90,-6.6,26.1
2015-10-21 00:42:00,0.0,1.93997,0.00043,396.886,0.042,0.5062,0.0020,139.999,45.000,31506.86304,1.94975,399.335,34.314,45.069,45.000,0.00,0.09,-272.75,-272.81,-7,519,-924,20.6,15.7,-6.3,20.7,15.9,-6.1,5.73,1.96,-6.6,26.1
2015-10-21 00:43:00,0.0,1.94073,0.00037,396.975,0.033,0.5076,0.0025,140.000,45.000,31506.34363,1.95055,399.435,34.312,45.069,45.000,0.00,0.09,-272.74,-272.81,-6,519,-924,20.6,15.8,-6.3,20.7,15.9,-6.1,5.73,1.81,-6.6,26.2
2015-10-21 00:44:00,0.0,1.94074,0.00038,396.969,0.032,0.5076,0.0019,139.999,45.000,31506.48258,1.95061,399.429,34.313,45.069,45.000,0.00,0.09,-272.75,-272.80,-8,519,-924,20.6,15.8,-6.3,20.7,16.0,-6.1,5.73,2.05,-6.6,26.1
2015-10-21 00:45:00,0.0,1.94043,0.00033,396.945,0.041,0.5086,0.0023,140.001,45.000,31505.87172,1.95029,399.411,34.311,45.069,45.000,0.00,0.09,-272.75,-272.81,-6,519,-924,20.6,15.8,-6.3,20.7,16.0,-6.1,5.73,1.74,-6.6,26.2
2015-10-21 00:46:00,0.0,1.94029,0.00040,396.949,0.030,0.5073,0.0015,140.000,45.000,31506.05616,1.95013,399.407,34.304,45.069,45.000,0.00,0.09,-272.75,-272.80,-8,519,-924,20.6,15.8,-6.3,20.7,16.0,-6.1,5.73,2.10,-6.6,26.1
2015-10-21 00:47:00,0.0,1.94040,0.00038,396.986,0.027,0.5078,0.0020,140.000,45.000,31506.12482,1.95024,399.448,34.312,45.069,45.000,0.00,0.09,-272.75,-272.80,-6,519,-924,20.6,15.8,-6.3,20.7,16.0,-6.1,5.73,1.72,-6.6,26.1
2015-10-21 00:48:00,0.0,1.94092,0.00041,396.983,0.036,0.5091,0.0019,140.001,45.000,31504.48966,1.95076,399.450,34.312,45.069,45.000,0.00,0.09,-272.75,-272.81,-8,519,-924,20.6,15.8,-6.3,20.7,16.0,-6.1,5.73,2.07,-6.6,26.1
2015-10-21 00:49:00,0.0,1.94107,0.00033,396.960,0.030,0.5097,0.0018,139.998,45.000,31504.57202,1.95098,399.432,34.321,45.069,45.000,0.00,0.09,-272.75,-272.81,-6,519,-924,20.6,15.8,-6.3,20.7,16.0,-6.1,5.73,1.77,-6.6,26.1
2015-10-21 00:50:00,0.0,1.94119,0.00033,396.961,0.035,0.5089,0.0014,140.001,45.000,31507.99630,1.95102,399.428,34.322,45.069,45.000,0.00,0.09,-272.74,-272.80,-8,519,-924,20.6,15.8,-6.3,20.7,16.0,-6.0,5.73,2.00,-6.6,26.1
2015-10-21 00:51:00,0.0,1.94207,0.00040,397.017,0.047,0.5091,0.0017,139.999,45.000,31506.86002,1.95195,399.483,34.316,45.069,45.000,0.00,0.09,-272.75,-272.80,-6,519,-924,20.6,15.8,-6.3,20.7,16.0,-6.1,5.73,1.87,-6.6,26.1
2015-10-21 00:52:00,0.0,1.94219,0.00034,397.102,0.062,0.5086,0.0014,139.999,45.000,31507.24733,1.95203,399.571,34.322,45.069,45.000,0.00,0.09,-272.75,-272.82,-8,519,-924,20.6,15.8,-6.3,20.7,16.0,-6.1,5.73,1.90,-6.6,26.1
2015-10-21 00:53:00,0.0,1.94208,0.00039,397.001,0.056,0.5088,0.0018,139.998,45.000,31507.36141,1.95196,399.467,34.337,45.069,45.000,0.00,0.09,-272.75,-272.80,-6,519,-924,20.6,15.8,-6.3,20.7,16.0,-6.1,5.73,1.97,-6.6,26.1
2015-10-21 00:54:00,0.0,1.94266,0.00030,396.969,0.034,0.5088,0.0023,139.998,45.000,31505.67366,1.95251,399.436,34.354,45.069,45.000,0.00,0.09,-272.74,-272.80,-8,519,-924,20.6,15.8,-6.3,20.7,16.0,-6.1,5.73,1.79,-6.6,26.2
2015-10-21 00:55:00,0.0,1.94268,0.00030,396.985,0.033,0.5082,0.0019,139.998,45.000,31505.40182,1.95255,399.449,34.374,45.069,45.000,0.00,0.09,-272.76,-272.81,-6,519,-924,20.6,15.7,-6.3,20.7,16.0,-6.0,5.73,2.06,-6.6,26.1
2015-10-21 00:56:00,0.0,1.94255,0.00037,396.991,0.039,0.5082,0.0014,139.996,45.000,31507.39062,1.95240,399.454,34.374,45.069,45.000,0.00,0.09,-272.75,-272.81,-8,519,-924,20.6,15.7,-6.3,20.7,15.9,-6.1,5.73,1.73,-6.6,26.2
2015-10-21 00:57:00,0.0,1.94325,0.00042,397.017,0.034,0.5080,0.0016,140.000,45.000,31508.25268,1.95307,399.479,34.374,45.069,45.000,0.00,0.09,-272.74,-272.80,-6,519,-924,20.6,15.8,-6.3,20.7,16.0,-6.1,5.73,2.09,-6.6,26.1
2015-10-21 00:58:00,0.0,1.94401,0.00038,397.021,0.032,0.5090,0.0016,140.000,45.000,31507.43870,1.95390,399.487,34.371,45.068,45.000,0.00,0.09,-272.74,-272.81,-7,519,-924,20.6,15.7,-6.3,20.7,16.0,-6.1,5.73,1.71,-6.5,26.1
2015-10-21 00:59:00,0.0,1.94465,0.00046,397.055,0.031,0.5097,0.0019,140.001,45.000,31505.53644,1.95454,399.526,34.364,45.068,44.999,0.00,0.09,-272.75,-272.81,-7,520,-924,20.6,15.7,-6.3,20.7,16.0,-6.1,5.73,2.10,-6.5,26.1
2015-10-21 01:00:00,0.0,1.94562,0.00061,397.078,0.041,0.5097,0.0015,139.997,45.000,31503.25788,1.95546,399.551,34.325,45.068,45.000,0.00,0.09,-272.74,-272.80,-7,519,-924,20.6,15.8,-6.3,20.7,16.0,-6.1,5.73,1.73,-6.6,26.1
2015-10-21 01:01:00,0.0,1.94657,0.00045,397.045,0.034,0.5105,0.0012,140.000,45.000,31504.08979,1.95648,399.518,34.314,45.069,45.000,0.00,0.09,-272.75,-272.80,-7,519,-924,20.7,15.8,-6.2,20.7,16.0,-6.1,5.73,2.06,-6.5,26.1
2015-10-21 01:02:00,0.0,1.94754,0.00070,397.026,0.069,0.5104,0.0017,139.999,45.000,31505.02360,1.95743,399.504,34.318,45.069,45.000,0.00,0.09,-272.76,-272.81,-7,519,-924,20.6,15.8,-6.3,20.7,16.0,-6.0,5.73,1.78,-6.5,26.1
2015-10-21 01:03:00,0.0,1.94820,0.00037,396.935,0.054,0.5061,0.0023,139.998,45.000,31505.60921,1.95804,399.388,34.313,45.069,45.000,0.00,0.09,-272.75,-272.81,-7,519,-924,20.6,15.6,-6.4,20.7,15.9,-6.1,5.73,1.99,-6.5,26.1
2015-10-21 01:04:00,0.0,1.94966,0.00054,396.873,0.054,0.5041,0.0026,140.001,45.000,31505.75490,1.95944,399.317,34.313,45.069,45.000,0.00,0.09,-272.74,-272.80,-7,519,-924,20.6,15.6,-6.5,20.7,15.8,-6.2,5.73,1.86,-6.5,26.1
2015-10-21 01:05:00,0.0,1.95013,0.00042,396.859,0.036,0.5026,0.0014,139.998,45.000,31506.40186,1.95992,399.295,34.308,45.069,45.000,0.00,0.09,-272.75,-272.81,-7,519,-924,20.6,15.5,-6.5,20.7,15.7,-6.2,5.73,1.90,-6.5,26.1
2015-10-21 01:06:00,0.0,1.95025,0.00043,396.871,0.036,0.4992,0.0022,140.000,45.000,31508.91336,1.95997,399.289,34.310,45.069,45.000,0.00,0.09,-272.75,-272.80,-6,519,-924,20.6,15.4,-6.6,20.7,15.6,-6.3,5.73,1.96,-6.5,26.1
2015-10-21 01:07:00,0.0,1.95010,0.00042,396.846,0.024,0.5024,0.0016,140.000,45.000,31510.64469,1.95990,399.280,34.310,45.069,45.000,0.00,0.09,-272.74,-272.80,-7,520,-924,20.7,15.5,-6.5,20.7,15.7,-6.3,5.73,1.81,-6.5,26.1
2015-10-21 01:08:00,0.0,1.95034,0.00033,396.829,0.037,0.5045,0.0019,139.999,45.000,31510.76377,1.96015,399.273,34.293,45.069,45.000,0.00,0.09,-272.76,-272.80,-6,519,-924,20.7,15.6,-6.4,20.7,15.8,-6.2,5.73,2.04,-6.5,26.1
2015-10-21 01:09:00,0.0,1.95138,0.00071,396.929,0.086,0.5038,0.0028,140.001,45.000,31510.16045,1.96114,399.367,34.275,45.069,45.000,0.00,0.09,-272.75,-272.82,-8,519,-924,20.7,15.5,-6.4,20.7,15.8,-6.2,5.73,1.75,-6.5,26.1
2015-10-21 01:10:00,0.0,1.95235,0.00043,397.102,0.045,0.5015,0.0016,139.998,45.000,31506.32582,1.96209,399.531,34.252,45.069,45.000,0.00,0.09,-272.74,-272.80,-6,520,-924,20.7,15.4,-6.5,20.7,15.7,-6.3,5.73,2.08,-6.5,26.1
2015-10-21 01:11:00,0.0,1.95256,0.00029,397.173,0.026,0.5012,0.0018,140.001,45.000,31505.74226,1.96237,399.604,34.250,45.069,45.000,0.00,0.09,-272.74,-272.81,-8,520,-924,20.7,15.4,-6.5,20.7,15.7,-6.3,5.73,1.72,-6.5,26.1
2015-10-21 01:12:00,0.0,1.95264,0.00037,397.183,0.033,0.5025,0.0024,139.998,45.000,31504.29974,1.96245,399.621,34.268,45.069,45.000,0.00,0.09,-272.75,-272.81,-6,519,-924,20.7,15.4,-6.5,20.7,15.7,-6.3,5.73,2.09,-6.5,26.1
2015-10-21 01:13:00,0.0,1.95258,0.00043,397.207,0.040,0.5014,0.0020,140.001,45.000,31506.73890,1.96235,399.636,34.305,45.069,45.000,0.00,0.09,-272.74,-272.81,-8,519,-924,20.7,15.4,-6.5,20.8,15.7,-6.2,5.73,1.73,-6.5,26.1
2015-10-21 01:14:00,0.0,1.95331,0.00039,397.244,0.038,0.5000,0.0015,140.001,45.000,31506.24998,1.96306,399.669,34.312,45.069,45.000,0.00,0.09,-272.75,-272.80,-6,520,-924,20.8,15.3,-6.6,20.8,15.6,-6.3,5.73,2.05,-6.5,26.1
2015-10-21 01:15:00,0.0,1.95338,0.00043,397.257,0.035,0.4984,0.0015,140.001,45.000,31508.74455,1.96306,399.674,34.310,45.069,45.000,0.00,0.09,-272.75,-272.81,-8,520,-924,20.7,15.2,-6.6,20.8,15.5,-6.3,5.73,1.80,-6.5,26.2
2015-10-21 01:16:00,0.0,1.95437,0.00044,397.296,0.035,0.4983,0.0015,140.000,45.000,31506.78916,1.96409,399.712,34.313,45.069,45.000,0.00,0.09,-272.75,-272.81,-6,520,-924,20.8,15.2,-6.6,20.8,15.5,-6.4,5.73,1.97,-6.5,26.2
2015-10-21 01:17:00,0.0,1.95455,0.00029,397.280,0.036,0.4981,0.0015,140.000,45.000,31508.88990,1.96425,399.696,34.313,45.069,45.000,0.00,0.09,-272.75,-272.81,-8,520,-924,20.8,15.2,-6.6,20.8,15.5,-6.4,5.73,1.88,-6.5,26.2
2015-10-21 01:18:00,0.0,1.95498,0.00049,397.298,0.039,0.4986,0.0021,140.000,45.000,31507.81514,1.96471,399.717,34.304,45.069,45.000,0.00,0.09,-272.75,-272.81,-6,520,-924,20.8,15.3,-6.6,20.8,15.5,-6.4,5.73,1.89,-6.5,26.2
2015-10-21 01:19:00,0.0,1.95517,0.00045,397.294,0.027,0.5009,0.0014,139.999,45.000,31506.94534,1.96493,399.724,34.275,45.069,45.000,0.00,0.09,-272.75,-272.81,-8,520,-924,20.8,15.3,-6.5,20.8,15.5,-6.3,5.73,1.94,-6.5,26.2
2015-10-21 01:20:00,0.0,1.95543,0.00049,397.315,0.032,0.5003,0.0020,140.000,45.000,31504.45246,1.96519,399.741,34.251,45.069,45.000,0.00,0.09,-272.74,-272.81,-6,520,-924,20.8,15.3,-6.5,20.8,15.5,-6.3,5.73,1.83,-6.5,26.2
2015-10-21 01:21:00,0.0,1.95568,0.00034,397.328,0.026,0.5009,0.0015,139.999,45.000,31503.62789,1.96549,399.758,34.278,45.069,45.000,0.00,0.09,-272.75,-272.80,-7,520,-924,20.8,15.3,-6.5,20.8,15.5,-6.3,5.73,2.02,-6.4,26.2
2015-10-21 01:22:00,0.0,1.95598,0.00042,397.345,0.028,0.5010,0.0015,139.999,45.000,31505.73811,1.96573,399.774,34.310,45.069,45.000,0.00,0.09,-272.75,-272.81,-6,520,-924,20.8,15.3,-6.5,20.9,15.5,-6.3,5.73,1.75,-6.4,26.2
2015-10-21 01:23:00,0.0,1.95660,0.00041,397.366,0.036,0.5009,0.0021,140.000,45.000,31508.76600,1.96638,399.797,34.313,45.069,45.000,0.00,0.09,-272.75,-272.80,-7,520,-924,20.8,15.3,-6.6,20.9,15.5,-6.3,5.73,2.08,-6.4,26.2
2015-10-21 01:24:00,0.0,1.95738,0.00052,397.396,0.047,0.4999,0.0021,139.998,45.000,31506.45296,1.96713,399.819,34.311,45.069,45.000,0.00,0.09,-272.75,-272.81,-7,520,-924,20.8,15.2,-6.6,20.9,15.5,-6.3,5.73,1.72,-6.4,26.2
2015-10-21 01:25:00,0.0,1.95770,0.00038,397.424,0.024,0.4987,0.0021,139.998,45.000,31506.86319,1.96747,399.843,34.263,45.069,45.000,0.00,0.09,-272.75,-272.81,-7,520,-924,20.9,15.2,-6.6,20.9,15.5,-6.3,5.73,2.10,-6.4,26.2
2015-10-21 01:26:00,0.0,1.95816,0.00051,397.446,0.031,0.4991,0.0020,140.002,45.000,31506.59832,1.96790,399.868,34.263,45.069,45.000,0.00,0.09,-272.74,-272.81,-7,520,-924,20.9,15.2,-6.6,20.9,15.5,-6.3,5.73,1.72,-6.4,26.1
2015-10-21 01:27:00,0.0,1.95838,0.00030,397.451,0.032,0.4977,0.0017,140.000,45.000,31506.51540,1.96810,399.865,34.284,45.069,45.000,0.00,0.09,-272.74,-272.80,-7,520,-924,20.8,15.1,-6.6,20.9,15.4,-6.4,5.73,2.08,-6.4,26.1
2015-10-21 01:28:00,0.0,1.95875,0.00045,397.487,0.023,0.4976,0.0015,140.001,45.000,31504.94035,1.96848,399.900,34.286,45.069,45.000,0.00,0.09,-272.75,-272.80,-7,520,-924,20.9,15.1,-6.6,20.9,15.4,-6.4,5.73,1.75,-6.4,26.2
2015-10-21 01:29:00,0.0,1.95892,0.00041,397.494,0.033,0.4973,0.0018,139.997,45.000,31505.77903,1.96862,399.908,34.303,45.069,45.000,0.00,0.09,-272.76,-272.81,-6,520,-924,20.9,15.1,-6.7,20.9,15.4,-6.4,5.73,2.02,-6.4,26.2
2015-10-21 01:30:00,0.0,1.95985,0.00059,397.554,0.037,0.4964,0.0024,140.000,45.000,31504.73815,1.96955,399.961,34.312,45.069,45.000,0.00,0.09,-272.75,-272.80,-7,520,-924,20.9,15.1,-6.7,20.9,15.4,-6.4,5.73,1.85,-6.4,26.2
2015-10-21 01:31:00,0.0,1.96078,0.00043,397.590,0.038,0.4951,0.0020,139.997,45.000,31506.55158,1.97045,399.993,34.312,45.069,45.000,0.00,0.09,-272.74,-272.81,-6,520,-924,20.9,15.0,-6.7,20.9,15.3,-6.4,5.73,1.92,-6.4,26.2
2015-10-21 01:32:00,0.0,1.96141,0.00042,397.614,0.031,0.4941,0.0024,140.000,45.000,31508.84843,1.97106,400.011,34.313,45.069,45.000,0.00,0.09,-272.76,-272.81,-8,520,-924,20.9,15.0,-6.7,20.9,15.3,-6.5,5.73,1.93,-6.4,26.2
2015-10-21 01:33:00,0.0,1.96192,0.00043,397.649,0.034,0.4920,0.0017,140.003,45.000,31508.60944,1.97156,400.037,34.313,45.069,45.000,0.00,0.09,-272.74,-272.81,-6,520,-924,20.9,14.9,-6.8,20.9,15.2,-6.5,5.73,1.83,-6.4,26.2
2015-10-21 01:34:00,0.0,1.96241,0.00030,397.701,0.040,0.4915,0.0021,139.998,45.000,31506.67320,1.97204,400.086,34.315,45.069,45.000,0.00,0.09,-272.75,-272.80,-8,520,-924,20.9,14.9,-6.8,20.9,15.1,-6.6,5.73,2.02,-6.4,26.2
2015-10-21 01:35:00,0.0,1.96267,0.00042,397.727,0.026,0.4906,0.0014,140.000,45.000,31509.26743,1.97225,400.108,34.308,45.069,45.000,0.00,0.09,-272.74,-272.81,-6,520,-924,20.9,14.8,-6.8,20.9,15.1,-6.6,5.73,1.76,-6.4,26.2
2015-10-21 01:36:00,0.0,1.96329,0.00033,397.785,0.027,0.4903,0.0019,140.000,45.000,31508.17892,1.97289,400.165,34.270,45.069,45.000,0.00,0.09,-272.76,-272.80,-8,520,-924,20.9,14.8,-6.8,20.9,15.1,-6.6,5.73,2.06,-6.4,26.2
2015-10-21 01:37:00,0.0,1.96350,0.00035,397.830,0.024,0.4886,0.0013,139.999,45.000,31508.55163,1.97306,400.201,34.284,45.069,45.000,0.00,0.09,-272.74,-272.81,-6,520,-924,21.0,14.8,-6.9,20.9,15.1,-6.6,5.73,1.73,-6.4,26.2
2015-10-21 01:38:00,0.0,1.96432,0.00036,397.878,0.037,0.4892,0.0025,140.000,45.000,31509.41330,1.97390,400.253,34.309,45.069,45.000,0.00,0.09,-272.75,-272.80,-8,520,-924,21.0,14.8,-6.9,20.9,15.0,-6.6,5.73,2.09,-6.4,26.2
2015-10-21 01:39:00,0.0,1.96451,0.00042,397.906,0.018,0.4891,0.0015,140.001,45.000,31508.45858,1.97409,400.279,34.313,45.069,45.000,0.00,0.09,-272.75,-272.81,-6,521,-924,20.9,14.8,-6.9,20.9,15.0,-6.6,5.73,1.72,-6.4,26.2
2015-10-21 01:40:00,0.0,1.96548,0.00113,397.993,0.065,0.4868,0.0015,139.999,45.000,31507.62166,1.97497,400.355,34.315,45.069,45.000,0.00,0.09,-272.75,-272.81,-8,521,-924,20.9,14.7,-6.9,20.9,15.0,-6.7,5.73,2.06,-6.4,26.2
2015-10-21 01:41:00,0.0,1.96627,0.00041,398.091,0.034,0.4840,0.0019,139.998,45.000,31510.32966,1.97580,400.441,34.313,45.069,45.000,0.00,0.09,-272.74,-272.80,-6,521,-924,21.0,14.6,-7.0,21.0,14.9,-6.7,5.73,1.77,-6.3,26.2
2015-10-21 01:42:00,0.0,1.96730,0.00076,398.134,0.031,0.4833,0.0018,140.000,45.000,31509.71896,1.97671,400.482,34.308,45.069,45.000,0.00,0.09,-272.75,-272.81,-8,520,-924,21.0,14.6,-7.0,21.0,14.9,-6.8,5.73,2.01,-6.4,26.2
2015-10-21 01:43:00,0.0,1.96844,0.00071,398.185,0.032,0.4812,0.0016,139.999,45.000,31508.67784,1.97784,400.522,34.310,45.069,45.000,0.00,0.09,-272.75,-272.80,-6,521,-924,21.0,14.5,-7.1,21.0,14.8,-6.8,5.73,1.84,-6.3,26.2
2015-10-21 01:44:00,0.0,1.96976,0.00056,398.202,0.040,0.4814,0.0017,139.998,45.000,31509.13985,1.97926,400.541,34.303,45.069,45.000,0.00,0.09,-272.75,-272.80,-8,521,-924,21.0,14.5,-7.1,21.0,14.8,-6.8,5.73,1.93,-6.3,26.2
2015-10-21 01:45:00,0.0,1.96947,0.00035,398.219,0.037,0.4806,0.0015,140.000,45.000,31509.41528,1.97889,400.552,34.275,45.069,45.000,0.00,0.09,-272.75,-272.81,-7,521,-924,21.0,14.5,-7.1,21.0,14.8,-6.8,5.73,1.92,-6.3,26.2